This is the latest recevied weather packets stored in our database for station/object WV8BRW. If no packets are shown the sender has not sent any weather packets the latest 10 day(s).
| Time | Temp. | Humidity | Pressure | Rain* | Wind** | Luminosity | Snow |
|---|---|---|---|---|---|---|---|
| 1777771429 | 7.78° C | 67% | 1015.5 hPa | 0 mm | - | 0 W/m² | - |
| 1777771126 | 8.33° C | 63% | 1015.5 hPa | 0 mm | - | 0 W/m² | - |
| 1777770823 | 8.33° C | 57% | 1015.4 hPa | 0 mm | - | 0 W/m² | - |
| 1777770519 | 8.89° C | 55% | 1015.4 hPa | 0 mm | - | 0 W/m² | - |
| 1777770217 | 8.89° C | 54% | 1015.5 hPa | 0 mm | - | 0 W/m² | - |
| 1777769913 | 8.89° C | 55% | 1015.1 hPa | 0 mm | - | 0 W/m² | - |
| 1777769611 | 8.89° C | 55% | 1015.3 hPa | 0 mm | - | 0 W/m² | - |
| 1777769307 | 9.44° C | 54% | 1015.3 hPa | 0 mm | - | 0 W/m² | - |
| 1777769005 | 9.44° C | 52% | 1015 hPa | 0 mm | - | 0 W/m² | - |
| 1777768702 | 9.44° C | 52% | 1015.1 hPa | 0 mm | - | 0 W/m² | - |
| 1777768399 | 9.44° C | 52% | 1014.8 hPa | 0 mm | - | 0 W/m² | - |
| 1777768096 | 9.44° C | 54% | 1014.9 hPa | 0 mm | - | 0 W/m² | - |
| 1777767793 | 10° C | 53% | 1014.6 hPa | 0 mm | - | 1 W/m² | - |
| 1777767489 | 10° C | 50% | 1014.5 hPa | 0 mm | - | 3 W/m² | - |
| 1777767185 | 10° C | 51% | 1014.8 hPa | 0 mm | - | 6 W/m² | - |
| 1777766883 | 10.56° C | 49% | 1014.6 hPa | 0 mm | - | 7 W/m² | - |
| 1777766580 | 10.56° C | 50% | 1014.4 hPa | 0 mm | - | 10 W/m² | - |
| 1777766277 | 10.56° C | 48% | 1014.5 hPa | 0 mm | - | 16 W/m² | - |
| 1777765975 | 11.11° C | 50% | 1014.4 hPa | 0 mm | - | 18 W/m² | - |
| 1777765671 | 11.11° C | 51% | 1014.4 hPa | 0 mm | - | 24 W/m² | - |
| 1777765368 | 11.11° C | 49% | 1014.3 hPa | 0 mm | - | 20 W/m² | - |
| 1777765064 | 11.11° C | 48% | 1014.4 hPa | 0 mm | - | 19 W/m² | - |
| 1777764761 | 11.11° C | 47% | 1014.4 hPa | 0 mm | - | 23 W/m² | - |
| 1777764457 | 11.11° C | 47% | 1014.1 hPa | 0 mm | - | 29 W/m² | - |
| 1777764154 | 11.67° C | 47% | 1014.1 hPa | 0 mm | - | 37 W/m² | - |
* Rain latest hour (hover to see other rain measurements)
** Current wind speed in m/s (hover to see current wind gust speed)